"Date","Average Accumulated Water Year PPT (in)","Average SWE (in)"
10/01/1981,0.000,0.000
10/02/1981,0.000,0.000
10/03/1981,0.023,0.000
10/04/1981,0.024,0.000
10/05/1981,0.024,0.000
10/06/1981,0.024,0.000
10/07/1981,0.024,0.000
10/08/1981,0.302,0.000
10/09/1981,0.302,0.000
10/10/1981,0.454,0.000
10/11/1981,0.995,0.004
10/12/1981,1.150,0.008
10/13/1981,1.412,0.011
10/14/1981,1.412,0.009
10/15/1981,1.412,0.008
10/16/1981,1.412,0.003
10/17/1981,1.412,0.001
10/18/1981,1.412,0.000
10/19/1981,1.412,0.000
10/20/1981,1.412,0.000
10/21/1981,1.412,0.000
10/22/1981,1.412,0.000
10/23/1981,1.412,0.000
10/24/1981,1.412,0.000
10/25/1981,1.412,0.000
10/26/1981,1.412,0.000
10/27/1981,1.412,0.000
10/28/1981,1.412,0.000
10/29/1981,1.567,0.000
10/30/1981,1.765,0.012
10/31/1981,1.765,0.008
11/01/1981,1.771,0.003
11/02/1981,1.771,0.001
11/03/1981,1.771,0.000
11/04/1981,1.771,0.000
11/05/1981,1.771,0.000
11/06/1981,1.771,0.000
11/07/1981,1.771,0.000
11/08/1981,1.771,0.000
11/09/1981,1.771,0.000
11/10/1981,1.771,0.000
11/11/1981,1.771,0.000
11/12/1981,1.851,0.000
11/13/1981,2.608,0.000
11/14/1981,2.612,0.000
11/15/1981,2.698,0.000
11/16/1981,3.099,0.009
11/17/1981,3.133,0.002
11/18/1981,3.178,0.002
11/19/1981,3.182,0.005
11/20/1981,3.247,0.016
11/21/1981,3.342,0.039
11/22/1981,3.787,0.043
11/23/1981,3.958,0.059
11/24/1981,4.703,0.141
11/25/1981,4.818,0.220
11/26/1981,4.818,0.220
11/27/1981,4.949,0.360
11/28/1981,4.949,0.360
11/29/1981,4.949,0.360
11/30/1981,4.954,0.364
12/01/1981,5.022,0.421
12/02/1981,5.110,0.362
12/03/1981,5.110,0.349
12/04/1981,5.110,0.349
12/05/1981,5.110,0.347
12/06/1981,5.120,0.259
12/07/1981,5.124,0.209
12/08/1981,5.124,0.191
12/09/1981,5.124,0.176
12/10/1981,5.124,0.161
12/11/1981,5.124,0.159
12/12/1981,5.129,0.167
12/13/1981,5.201,0.238
12/14/1981,5.444,0.295
12/15/1981,5.889,0.340
12/16/1981,6.012,0.322
12/17/1981,6.017,0.332
12/18/1981,6.017,0.332
12/19/1981,6.714,0.928
12/20/1981,7.287,0.862
12/21/1981,7.529,0.799
12/22/1981,7.541,0.828
12/23/1981,7.541,0.828
12/24/1981,7.576,0.866
12/25/1981,7.741,1.029
12/26/1981,7.879,1.190
12/27/1981,8.246,1.545
12/28/1981,8.306,1.621
12/29/1981,8.381,1.695
12/30/1981,8.898,2.139
12/31/1981,9.051,2.303
01/01/1982,9.369,2.843
01/02/1982,9.473,2.918
01/03/1982,9.488,2.937
01/04/1982,9.562,3.013
01/05/1982,9.640,3.126
01/06/1982,9.640,3.126
01/07/1982,9.640,3.126
01/08/1982,9.640,3.126
01/09/1982,9.640,3.126
01/10/1982,9.640,3.126
01/11/1982,9.649,3.146
01/12/1982,9.698,3.232
01/13/1982,9.698,3.232
01/14/1982,9.698,3.232
01/15/1982,9.698,3.232
01/16/1982,9.786,3.236
01/17/1982,10.034,3.232
01/18/1982,10.034,3.169
01/19/1982,10.182,3.438
01/20/1982,10.190,3.442
01/21/1982,10.256,3.496
01/22/1982,10.401,3.630
01/23/1982,10.640,3.936
01/24/1982,10.812,3.787
01/25/1982,11.038,3.897
01/26/1982,11.038,3.861
01/27/1982,11.152,3.879
01/28/1982,11.176,3.917
01/29/1982,11.182,3.920
01/30/1982,11.182,3.920
01/31/1982,11.182,3.912
02/01/1982,11.258,3.928
02/02/1982,11.282,3.961
02/03/1982,11.436,4.165
02/04/1982,11.436,4.165
02/05/1982,11.441,4.173
02/06/1982,11.441,4.173
02/07/1982,11.482,4.197
02/08/1982,11.487,4.203
02/09/1982,11.487,4.203
02/10/1982,11.500,4.222
02/11/1982,11.500,4.222
02/12/1982,11.500,4.222
02/13/1982,11.536,4.244
02/14/1982,12.016,4.374
02/15/1982,12.489,4.295
02/16/1982,12.816,4.281
02/17/1982,12.906,4.108
02/18/1982,12.969,4.044
02/19/1982,13.104,4.015
02/20/1982,13.224,3.695
02/21/1982,13.224,3.236
02/22/1982,13.287,3.260
02/23/1982,13.287,3.260
02/24/1982,13.287,3.260
02/25/1982,13.297,3.278
02/26/1982,13.297,3.278
02/27/1982,13.297,3.233
02/28/1982,13.297,3.211
03/01/1982,13.297,3.179
03/02/1982,13.635,3.310
03/03/1982,13.723,3.347
03/04/1982,13.878,3.502
03/05/1982,14.131,3.696
03/06/1982,14.131,3.696
03/07/1982,14.131,3.681
03/08/1982,14.134,3.628
03/09/1982,14.134,3.555
03/10/1982,14.164,3.419
03/11/1982,14.172,3.294
03/12/1982,14.286,3.352
03/13/1982,14.286,3.352
03/14/1982,14.332,3.378
03/15/1982,14.594,3.531
03/16/1982,14.606,3.533
03/17/1982,14.631,3.573
03/18/1982,14.831,3.718
03/19/1982,15.019,3.874
03/20/1982,15.074,3.927
03/21/1982,15.074,3.927
03/22/1982,15.074,3.926
03/23/1982,15.074,3.916
03/24/1982,15.074,3.758
03/25/1982,15.148,3.733
03/26/1982,15.161,3.656
03/27/1982,15.161,3.503
03/28/1982,15.161,3.367
03/29/1982,15.161,3.330
03/30/1982,15.378,3.419
03/31/1982,15.604,3.492
04/01/1982,15.956,3.615
04/02/1982,16.113,3.771
04/03/1982,16.191,3.788
04/04/1982,16.452,4.015
04/05/1982,16.677,4.311
04/06/1982,16.749,4.347
04/07/1982,16.788,4.404
04/08/1982,16.825,4.436
04/09/1982,16.848,4.429
04/10/1982,16.848,4.279
04/11/1982,17.175,4.063
04/12/1982,17.278,3.681
04/13/1982,17.292,3.427
04/14/1982,17.304,3.210
04/15/1982,17.350,3.226
04/16/1982,17.390,3.258
04/17/1982,17.390,3.246
04/18/1982,17.390,3.198
04/19/1982,17.390,3.198
04/20/1982,17.390,3.198
04/21/1982,17.390,3.198
04/22/1982,17.390,3.058
04/23/1982,17.390,2.780
04/24/1982,17.390,2.563
04/25/1982,17.390,2.353
04/26/1982,17.390,2.148
04/27/1982,17.390,1.933
04/28/1982,17.396,1.721
04/29/1982,17.396,1.663
04/30/1982,17.396,1.600
05/01/1982,17.396,1.455
05/02/1982,17.396,1.370
05/03/1982,17.396,1.207
05/04/1982,17.451,1.161
05/05/1982,17.451,1.154
05/06/1982,17.451,1.089
05/07/1982,17.451,0.957
05/08/1982,17.451,0.862
05/09/1982,17.451,0.831
05/10/1982,17.759,0.898
05/11/1982,17.838,0.859
05/12/1982,17.897,0.819
05/13/1982,17.897,0.760
05/14/1982,17.954,0.683
05/15/1982,17.957,0.582
05/16/1982,17.957,0.525
05/17/1982,17.957,0.454
05/18/1982,18.101,0.397
05/19/1982,18.101,0.385
05/20/1982,18.110,0.365
05/21/1982,18.110,0.329
05/22/1982,18.110,0.281
05/23/1982,18.110,0.237
05/24/1982,18.110,0.203
05/25/1982,18.110,0.166
05/26/1982,18.110,0.121
05/27/1982,18.110,0.108
05/28/1982,18.110,0.105
05/29/1982,18.221,0.108
05/30/1982,18.221,0.103
05/31/1982,18.245,0.094
06/01/1982,18.372,0.073
06/02/1982,18.372,0.067
06/03/1982,18.375,0.057
06/04/1982,18.417,0.050
06/05/1982,18.471,0.046
06/06/1982,18.715,0.044
06/07/1982,18.715,0.040
06/08/1982,18.715,0.038
06/09/1982,18.715,0.033
06/10/1982,18.715,0.024
06/11/1982,18.715,0.016
06/12/1982,18.764,0.008
06/13/1982,18.764,0.005
06/14/1982,18.764,0.002
06/15/1982,18.764,0.001
06/16/1982,18.764,0.001
06/17/1982,18.764,0.000
06/18/1982,18.764,0.000
06/19/1982,18.764,0.000
06/20/1982,18.764,0.000
06/21/1982,18.806,0.000
06/22/1982,18.926,0.000
06/23/1982,19.166,0.000
06/24/1982,19.336,0.000
06/25/1982,19.839,0.000
06/26/1982,19.919,0.000
06/27/1982,20.009,0.000
06/28/1982,20.228,0.000
06/29/1982,20.875,0.000
06/30/1982,20.958,0.000
07/01/1982,21.165,0.000
07/02/1982,21.740,0.000
07/03/1982,22.152,0.000
07/04/1982,22.286,0.000
07/05/1982,22.288,0.000
07/06/1982,22.288,0.000
07/07/1982,22.290,0.000
07/08/1982,22.406,0.000
07/09/1982,22.407,0.000
07/10/1982,22.407,0.000
07/11/1982,22.407,0.000
07/12/1982,22.407,0.000
07/13/1982,22.407,0.000
07/14/1982,22.407,0.000
07/15/1982,22.407,0.000
07/16/1982,22.407,0.000
07/17/1982,22.407,0.000
07/18/1982,22.407,0.000
07/19/1982,22.407,0.000
07/20/1982,22.407,0.000
07/21/1982,22.407,0.000
07/22/1982,22.407,0.000
07/23/1982,22.407,0.000
07/24/1982,22.407,0.000
07/25/1982,22.407,0.000
07/26/1982,22.407,0.000
07/27/1982,22.407,0.000
07/28/1982,22.412,0.000
07/29/1982,22.412,0.000
07/30/1982,22.412,0.000
07/31/1982,22.630,0.000
08/01/1982,22.630,0.000
08/02/1982,22.630,0.000
08/03/1982,22.630,0.000
08/04/1982,22.630,0.000
08/05/1982,22.630,0.000
08/06/1982,22.630,0.000
08/07/1982,22.630,0.000
08/08/1982,22.630,0.000
08/09/1982,22.658,0.000
08/10/1982,22.658,0.000
08/11/1982,22.658,0.000
08/12/1982,22.663,0.000
08/13/1982,22.663,0.000
08/14/1982,22.663,0.000
08/15/1982,22.663,0.000
08/16/1982,22.663,0.000
08/17/1982,22.663,0.000
08/18/1982,22.663,0.000
08/19/1982,22.663,0.000
08/20/1982,22.706,0.000
08/21/1982,22.706,0.000
08/22/1982,22.734,0.000
08/23/1982,22.734,0.000
08/24/1982,22.734,0.000
08/25/1982,22.734,0.000
08/26/1982,22.734,0.000
08/27/1982,22.734,0.000
08/28/1982,22.734,0.000
08/29/1982,22.734,0.000
08/30/1982,22.785,0.000
08/31/1982,22.785,0.000
09/01/1982,22.785,0.000
09/02/1982,22.785,0.000
09/03/1982,22.785,0.000
09/04/1982,22.785,0.000
09/05/1982,22.785,0.000
09/06/1982,22.785,0.000
09/07/1982,22.785,0.000
09/08/1982,22.785,0.000
09/09/1982,22.785,0.000
09/10/1982,22.785,0.000
09/11/1982,22.785,0.000
09/12/1982,22.794,0.000
09/13/1982,23.218,0.000
09/14/1982,23.218,0.000
09/15/1982,23.219,0.000
09/16/1982,23.287,0.000
09/17/1982,23.351,0.000
09/18/1982,23.351,0.000
09/19/1982,23.356,0.000
09/20/1982,23.975,0.000
09/21/1982,23.975,0.000
09/22/1982,23.975,0.000
09/23/1982,23.987,0.000
09/24/1982,23.987,0.000
09/25/1982,24.238,0.000
09/26/1982,24.543,0.000
09/27/1982,24.543,0.000
09/28/1982,24.550,0.000
09/29/1982,24.805,0.000
09/30/1982,24.959,0.001
10/01/1982,0.000,0.000
10/02/1982,0.011,0.000
10/03/1982,0.024,0.000
10/04/1982,0.182,0.000
10/05/1982,0.252,0.000
10/06/1982,0.263,0.000
10/07/1982,0.342,0.000
10/08/1982,0.343,0.000
10/09/1982,0.343,0.000
10/10/1982,0.343,0.000
10/11/1982,0.343,0.000
10/12/1982,0.343,0.000
10/13/1982,0.343,0.000
10/14/1982,0.354,0.000
10/15/1982,0.354,0.000
10/16/1982,0.354,0.000
10/17/1982,0.354,0.000
10/18/1982,0.354,0.000
10/19/1982,0.354,0.000
10/20/1982,0.354,0.000
10/21/1982,0.354,0.000
10/22/1982,0.354,0.000
10/23/1982,0.379,0.000
10/24/1982,0.386,0.000
10/25/1982,0.386,0.000
10/26/1982,0.788,0.000
10/27/1982,0.870,0.000
10/28/1982,0.870,0.000
10/29/1982,1.335,0.090
10/30/1982,2.400,0.126
10/31/1982,2.494,0.152
11/01/1982,2.494,0.131
11/02/1982,2.494,0.131
11/03/1982,2.494,0.131
11/04/1982,2.494,0.129
11/05/1982,2.494,0.116
11/06/1982,2.494,0.100
11/07/1982,2.494,0.100
11/08/1982,2.494,0.100
11/09/1982,2.511,0.108
11/10/1982,2.553,0.143
11/11/1982,2.773,0.327
11/12/1982,2.778,0.330
11/13/1982,2.778,0.330
11/14/1982,2.778,0.330
11/15/1982,2.778,0.330
11/16/1982,2.778,0.330
11/17/1982,2.841,0.320
11/18/1982,3.151,0.288
11/19/1982,3.495,0.327
11/20/1982,3.631,0.417
11/21/1982,3.670,0.466
11/22/1982,3.809,0.584
11/23/1982,3.814,0.587
11/24/1982,3.814,0.587
11/25/1982,3.814,0.587
11/26/1982,3.814,0.587
11/27/1982,3.827,0.592
11/28/1982,3.889,0.604
11/29/1982,4.197,0.597
11/30/1982,4.472,0.658
12/01/1982,4.548,0.707
12/02/1982,4.548,0.707
12/03/1982,4.820,0.902
12/04/1982,4.886,0.848
12/05/1982,4.892,0.824
12/06/1982,5.200,0.879
12/07/1982,5.204,0.888
12/08/1982,5.204,0.888
12/09/1982,5.204,0.888
12/10/1982,5.204,0.888
12/11/1982,5.204,0.888
12/12/1982,5.204,0.888
12/13/1982,5.354,1.007
12/14/1982,5.421,1.067
12/15/1982,5.648,1.273
12/16/1982,5.924,1.239
12/17/1982,5.983,1.126
12/18/1982,5.983,1.119
12/19/1982,5.983,1.113
12/20/1982,5.989,1.106
12/21/1982,6.260,1.089
12/22/1982,6.371,1.150
12/23/1982,6.757,1.500
12/24/1982,6.805,1.538
12/25/1982,6.805,1.538
12/26/1982,6.838,1.561
12/27/1982,6.838,1.561
12/28/1982,6.838,1.561
12/29/1982,6.838,1.561
12/30/1982,6.838,1.561
12/31/1982,6.838,1.561
01/01/1983,6.838,1.561
01/02/1983,6.838,1.561
01/03/1983,6.861,1.589
01/04/1983,6.944,1.667
01/05/1983,7.092,1.732
01/06/1983,7.092,1.678
01/07/1983,7.314,1.647
01/08/1983,7.342,1.565
01/09/1983,7.342,1.533
01/10/1983,7.351,1.529
01/11/1983,7.351,1.494
01/12/1983,7.363,1.514
01/13/1983,7.363,1.514
01/14/1983,7.363,1.514
01/15/1983,7.363,1.514
01/16/1983,7.363,1.514
01/17/1983,7.363,1.514
01/18/1983,7.363,1.510
01/19/1983,7.438,1.583
01/20/1983,8.038,2.171
01/21/1983,8.144,2.241
01/22/1983,8.144,2.186
01/23/1983,8.262,2.266
01/24/1983,8.263,2.179
01/25/1983,8.343,2.171
01/26/1983,8.359,2.178
01/27/1983,8.359,2.094
01/28/1983,8.381,2.072
01/29/1983,8.381,2.035
01/30/1983,8.568,2.113
01/31/1983,8.573,2.121
02/01/1983,8.573,2.122
02/02/1983,8.573,2.122
02/03/1983,8.573,2.122
02/04/1983,8.573,2.122
02/05/1983,8.573,2.122
02/06/1983,8.573,2.122
02/07/1983,8.908,2.605
02/08/1983,8.909,2.595
02/09/1983,8.972,2.607
02/10/1983,9.222,2.651
02/11/1983,9.223,2.609
02/12/1983,9.230,2.555
02/13/1983,9.580,2.511
02/14/1983,9.848,2.792
02/15/1983,9.849,2.726
02/16/1983,9.899,2.733
02/17/1983,9.935,2.677
02/18/1983,9.935,2.571
02/19/1983,10.128,2.549
02/20/1983,10.138,2.541
02/21/1983,10.139,2.503
02/22/1983,10.159,2.431
02/23/1983,10.170,2.391
02/24/1983,10.170,2.265
02/25/1983,10.195,2.154
02/26/1983,10.295,2.079
02/27/1983,10.336,2.061
02/28/1983,10.510,2.075
03/01/1983,10.754,2.072
03/02/1983,10.780,1.944
03/03/1983,10.827,1.879
03/04/1983,11.167,1.837
03/05/1983,11.283,1.850
03/06/1983,11.285,1.831
03/07/1983,11.490,1.824
03/08/1983,11.640,1.783
03/09/1983,11.640,1.725
03/10/1983,11.658,1.602
03/11/1983,11.658,1.482
03/12/1983,11.815,1.549
03/13/1983,12.377,1.535
03/14/1983,12.675,1.580
03/15/1983,12.743,1.629
03/16/1983,12.752,1.637
03/17/1983,12.837,1.699
03/18/1983,12.929,1.771
03/19/1983,13.012,1.769
03/20/1983,13.021,1.774
03/21/1983,13.021,1.770
03/22/1983,13.031,1.736
03/23/1983,13.224,1.734
03/24/1983,13.310,1.751
03/25/1983,13.493,1.870
03/26/1983,13.544,1.895
03/27/1983,13.620,1.886
03/28/1983,14.064,2.300
03/29/1983,14.064,2.222
03/30/1983,14.378,2.246
03/31/1983,14.835,2.189
04/01/1983,14.878,2.214
04/02/1983,15.036,2.219
04/03/1983,15.172,2.277
04/04/1983,15.189,2.302
04/05/1983,15.189,2.302
04/06/1983,15.197,2.310
04/07/1983,15.197,2.303
04/08/1983,15.205,2.277
04/09/1983,15.211,2.245
04/10/1983,15.235,2.216
04/11/1983,15.235,2.216
04/12/1983,15.235,2.216
04/13/1983,15.238,2.216
04/14/1983,15.238,2.216
04/15/1983,15.238,2.211
04/16/1983,15.246,2.174
04/17/1983,15.246,2.105
04/18/1983,15.247,1.918
04/19/1983,15.342,1.772
04/20/1983,15.342,1.637
04/21/1983,15.406,1.531
04/22/1983,15.406,1.446
04/23/1983,15.480,1.390
04/24/1983,15.812,1.318
04/25/1983,15.813,1.285
04/26/1983,15.943,1.351
04/27/1983,16.033,1.346
04/28/1983,16.033,1.278
04/29/1983,16.135,1.259
04/30/1983,16.472,1.219
05/01/1983,16.976,1.177
05/02/1983,17.593,1.211
05/03/1983,17.612,1.132
05/04/1983,17.612,1.053
05/05/1983,17.903,0.972
05/06/1983,18.409,1.009
05/07/1983,18.427,0.997
05/08/1983,18.445,0.971
05/09/1983,18.677,0.999
05/10/1983,18.784,1.029
05/11/1983,19.123,1.127
05/12/1983,19.133,1.108
05/13/1983,19.160,1.122
05/14/1983,19.160,1.100
05/15/1983,19.160,1.011
05/16/1983,19.185,0.997
05/17/1983,19.185,0.958
05/18/1983,19.185,0.900
05/19/1983,19.185,0.879
05/20/1983,19.185,0.852
05/21/1983,19.185,0.821
05/22/1983,19.185,0.773
05/23/1983,19.185,0.719
05/24/1983,19.193,0.641
05/25/1983,19.194,0.533
05/26/1983,19.194,0.431
05/27/1983,19.194,0.342
05/28/1983,19.194,0.259
05/29/1983,19.194,0.201
05/30/1983,19.194,0.150
05/31/1983,19.194,0.113
06/01/1983,19.388,0.099
06/02/1983,19.829,0.084
06/03/1983,19.829,0.067
06/04/1983,19.839,0.055
06/05/1983,19.852,0.045
06/06/1983,19.861,0.038
06/07/1983,19.861,0.032
06/08/1983,19.861,0.024
06/09/1983,20.038,0.018
06/10/1983,20.038,0.015
06/11/1983,20.297,0.011
06/12/1983,20.384,0.011
06/13/1983,20.384,0.010
06/14/1983,20.384,0.009
06/15/1983,20.384,0.006
06/16/1983,20.384,0.005
06/17/1983,20.384,0.003
06/18/1983,20.384,0.002
06/19/1983,20.384,0.002
06/20/1983,20.384,0.001
06/21/1983,20.398,0.001
06/22/1983,20.398,0.000
06/23/1983,20.398,0.000
06/24/1983,20.398,0.000
06/25/1983,20.398,0.000
06/26/1983,20.409,0.000
06/27/1983,20.624,0.000
06/28/1983,20.624,0.000
06/29/1983,20.624,0.000
06/30/1983,20.624,0.000
07/01/1983,20.666,0.000
07/02/1983,21.386,0.000
07/03/1983,21.386,0.000
07/04/1983,21.386,0.000
07/05/1983,21.386,0.000
07/06/1983,21.393,0.000
07/07/1983,21.393,0.000
07/08/1983,21.393,0.000
07/09/1983,21.393,0.000
07/10/1983,21.396,0.000
07/11/1983,21.396,0.000
07/12/1983,21.396,0.000
07/13/1983,21.396,0.000
07/14/1983,21.396,0.000
07/15/1983,21.797,0.000
07/16/1983,21.797,0.000
07/17/1983,21.797,0.000
07/18/1983,21.797,0.000
07/19/1983,21.805,0.000
07/20/1983,21.805,0.000
07/21/1983,21.805,0.000
07/22/1983,21.805,0.000
07/23/1983,21.816,0.000
07/24/1983,21.816,0.000
07/25/1983,21.816,0.000
07/26/1983,21.816,0.000
07/27/1983,21.824,0.000
07/28/1983,21.824,0.000
07/29/1983,21.824,0.000
07/30/1983,21.824,0.000
07/31/1983,21.824,0.000
08/01/1983,21.824,0.000
08/02/1983,21.824,0.000
08/03/1983,21.824,0.000
08/04/1983,21.824,0.000
08/05/1983,21.824,0.000
08/06/1983,21.869,0.000
08/07/1983,21.874,0.000
08/08/1983,21.884,0.000
08/09/1983,21.913,0.000
08/10/1983,22.166,0.000
08/11/1983,22.552,0.000
08/12/1983,22.586,0.000
08/13/1983,22.586,0.000
08/14/1983,22.761,0.000
08/15/1983,22.761,0.000
08/16/1983,22.763,0.000
08/17/1983,22.763,0.000
08/18/1983,22.809,0.000
08/19/1983,22.871,0.000
08/20/1983,22.938,0.000
08/21/1983,23.088,0.000
08/22/1983,23.463,0.000
08/23/1983,24.061,0.000
08/24/1983,24.064,0.000
08/25/1983,24.151,0.000
08/26/1983,24.161,0.000
08/27/1983,24.167,0.000
08/28/1983,24.167,0.000
08/29/1983,24.172,0.000
08/30/1983,24.172,0.000
08/31/1983,24.172,0.000
09/01/1983,24.367,0.000
09/02/1983,24.387,0.000
09/03/1983,24.390,0.000
09/04/1983,24.390,0.000
09/05/1983,24.390,0.000
09/06/1983,24.390,0.000
09/07/1983,24.390,0.000
09/08/1983,24.390,0.000
09/09/1983,24.390,0.000
09/10/1983,24.390,0.000
09/11/1983,24.390,0.000
09/12/1983,24.390,0.000
09/13/1983,24.390,0.000
09/14/1983,24.404,0.000
09/15/1983,24.404,0.000
09/16/1983,24.404,0.000
09/17/1983,24.404,0.000
09/18/1983,24.404,0.000
09/19/1983,24.404,0.000
09/20/1983,24.404,0.000
09/21/1983,24.404,0.000
09/22/1983,24.404,0.000
09/23/1983,24.404,0.000
09/24/1983,24.404,0.000
09/25/1983,24.404,0.000
09/26/1983,24.404,0.000
09/27/1983,24.413,0.000
09/28/1983,24.421,0.000
09/29/1983,24.445,0.000
09/30/1983,24.512,0.000
10/01/1983,0.013,0.000
10/02/1983,0.050,0.000
10/03/1983,0.052,0.000
10/04/1983,0.052,0.000
10/05/1983,0.052,0.000
10/06/1983,0.052,0.000
10/07/1983,0.052,0.000
10/08/1983,0.052,0.000
10/09/1983,0.241,0.000
10/10/1983,0.243,0.000
10/11/1983,0.250,0.000
10/12/1983,0.250,0.000
10/13/1983,0.250,0.000
10/14/1983,0.894,0.000
10/15/1983,0.894,0.000
10/16/1983,0.894,0.000
10/17/1983,0.894,0.000
10/18/1983,0.894,0.000
10/19/1983,0.894,0.000
10/20/1983,0.894,0.000
10/21/1983,0.894,0.000
10/22/1983,0.894,0.000
10/23/1983,1.009,0.000
10/24/1983,1.009,0.000
10/25/1983,1.009,0.000
10/26/1983,1.009,0.000
10/27/1983,1.009,0.000
10/28/1983,1.009,0.000
10/29/1983,1.009,0.000
10/30/1983,1.011,0.000
10/31/1983,1.016,0.000
11/01/1983,1.124,0.000
11/02/1983,1.308,0.001
11/03/1983,1.315,0.000
11/04/1983,1.320,0.000
11/05/1983,1.346,0.000
11/06/1983,1.346,0.000
11/07/1983,1.685,0.000
11/08/1983,1.685,0.000
11/09/1983,1.685,0.000
11/10/1983,1.981,0.063
11/11/1983,2.122,0.038
11/12/1983,2.126,0.033
11/13/1983,2.312,0.054
11/14/1983,2.505,0.165
11/15/1983,2.505,0.133
11/16/1983,2.608,0.099
11/17/1983,3.111,0.089
11/18/1983,3.178,0.093
11/19/1983,3.328,0.185
11/20/1983,3.602,0.341
11/21/1983,3.602,0.342
11/22/1983,3.602,0.342
11/23/1983,3.602,0.342
11/24/1983,4.061,0.547
11/25/1983,4.435,0.604
11/26/1983,4.445,0.618
11/27/1983,4.494,0.652
11/28/1983,4.497,0.648
11/29/1983,4.508,0.658
11/30/1983,4.624,0.845
12/01/1983,5.140,1.414
12/02/1983,5.349,1.566
12/03/1983,5.372,1.605
12/04/1983,5.529,1.773
12/05/1983,5.735,1.950
12/06/1983,6.032,2.235
12/07/1983,6.613,2.617
12/08/1983,6.799,2.478
12/09/1983,6.904,2.544
12/10/1983,7.115,2.589
12/11/1983,7.309,2.603
12/12/1983,7.824,2.748
12/13/1983,8.020,2.970
12/14/1983,8.463,3.355
12/15/1983,8.852,3.582
12/16/1983,8.852,3.583
12/17/1983,8.878,3.603
12/18/1983,8.903,3.641
12/19/1983,9.066,3.886
12/20/1983,9.070,3.897
12/21/1983,9.071,3.898
12/22/1983,9.174,4.048
12/23/1983,9.175,4.050
12/24/1983,9.286,4.262
12/25/1983,9.493,4.735
12/26/1983,9.580,4.890
12/27/1983,9.586,4.901
12/28/1983,9.618,4.938
12/29/1983,9.642,4.979
12/30/1983,9.783,5.072
12/31/1983,9.816,5.112
01/01/1984,9.817,5.113
01/02/1984,9.817,5.113
01/03/1984,9.817,5.113
01/04/1984,9.828,5.121
01/05/1984,9.839,5.115
01/06/1984,9.851,5.123
01/07/1984,9.851,5.123
01/08/1984,9.851,5.123
01/09/1984,9.851,5.123
01/10/1984,9.851,5.123
01/11/1984,9.934,5.170
01/12/1984,9.934,5.170
01/13/1984,10.034,5.237
01/14/1984,10.087,5.290
01/15/1984,10.087,5.290
01/16/1984,10.087,5.290
01/17/1984,10.087,5.290
01/18/1984,10.087,5.290
01/19/1984,10.087,5.290
01/20/1984,10.087,5.290
01/21/1984,10.087,5.290
01/22/1984,10.087,5.290
01/23/1984,10.144,5.324
01/24/1984,10.342,5.445
01/25/1984,10.343,4.972
01/26/1984,10.344,4.875
01/27/1984,10.363,4.895
01/28/1984,10.397,4.926
01/29/1984,10.397,4.926
01/30/1984,10.397,4.926
01/31/1984,10.397,4.926
02/01/1984,10.397,4.926
02/02/1984,10.397,4.926
02/03/1984,10.397,4.926
02/04/1984,10.397,4.926
02/05/1984,10.397,4.926
02/06/1984,10.397,4.926
02/07/1984,10.397,4.926
02/08/1984,10.397,4.926
02/09/1984,10.397,4.926
02/10/1984,10.650,5.088
02/11/1984,10.650,5.088
02/12/1984,10.691,5.106
02/13/1984,10.843,4.985
02/14/1984,11.013,5.040
02/15/1984,11.013,5.039
02/16/1984,11.137,5.126
02/17/1984,11.165,5.142
02/18/1984,11.176,5.149
02/19/1984,11.186,5.156
02/20/1984,11.196,5.169
02/21/1984,11.396,5.436
02/22/1984,11.549,5.492
02/23/1984,11.549,5.492
02/24/1984,11.553,5.494
02/25/1984,11.593,5.500
02/26/1984,11.605,5.509
02/27/1984,11.812,5.708
02/28/1984,11.851,5.752
02/29/1984,11.914,5.768
03/01/1984,11.922,5.739
03/02/1984,11.990,5.620
03/03/1984,12.007,5.629
03/04/1984,12.007,5.629
03/05/1984,12.024,5.654
03/06/1984,12.024,5.648
03/07/1984,12.049,5.650
03/08/1984,12.099,5.672
03/09/1984,12.124,5.557
03/10/1984,12.135,5.457
03/11/1984,12.205,5.448
03/12/1984,12.261,5.350
03/13/1984,12.261,5.185
03/14/1984,12.362,5.018
03/15/1984,12.581,4.978
03/16/1984,13.096,5.213
03/17/1984,13.308,5.265
03/18/1984,13.389,5.342
03/19/1984,13.389,5.277
03/20/1984,13.389,4.978
03/21/1984,13.519,4.737
03/22/1984,13.569,4.745
03/23/1984,13.626,4.733
03/24/1984,13.626,4.666
03/25/1984,13.626,4.666
03/26/1984,13.932,4.973
03/27/1984,14.278,5.070
03/28/1984,14.327,5.080
03/29/1984,14.707,5.496
03/30/1984,14.991,5.558
03/31/1984,14.991,5.499
04/01/1984,14.991,5.381
04/02/1984,15.005,5.357
04/03/1984,15.038,5.342
04/04/1984,15.051,5.296
04/05/1984,15.149,5.180
04/06/1984,15.331,5.071
04/07/1984,15.351,5.092
04/08/1984,15.430,5.067
04/09/1984,16.205,5.636
04/10/1984,16.384,5.741
04/11/1984,16.423,5.742
04/12/1984,16.424,5.707
04/13/1984,16.433,5.633
04/14/1984,16.433,5.562
04/15/1984,16.433,5.242
04/16/1984,16.433,4.625
04/17/1984,16.525,4.040
04/18/1984,16.603,3.843
04/19/1984,16.708,3.783
04/20/1984,16.815,3.732
04/21/1984,16.822,3.683
04/22/1984,16.829,3.541
04/23/1984,16.842,3.221
04/24/1984,16.842,3.154
04/25/1984,16.891,3.158
04/26/1984,16.906,3.172
04/27/1984,16.929,3.187
04/28/1984,16.977,3.193
04/29/1984,16.977,3.187
04/30/1984,16.977,3.129
05/01/1984,17.318,3.183
05/02/1984,17.539,3.093
05/03/1984,17.748,2.935
05/04/1984,17.850,2.831
05/05/1984,17.871,2.838
05/06/1984,17.879,2.844
05/07/1984,17.912,2.825
05/08/1984,17.929,2.714
05/09/1984,17.949,2.374
05/10/1984,17.949,2.202
05/11/1984,18.045,2.121
05/12/1984,18.091,1.994
05/13/1984,18.277,1.741
05/14/1984,18.372,1.442
05/15/1984,18.781,1.374
05/16/1984,19.041,1.426
05/17/1984,19.057,1.387
05/18/1984,19.057,1.338
05/19/1984,19.074,1.265
05/20/1984,19.074,1.152
05/21/1984,19.074,1.092
05/22/1984,19.074,1.051
05/23/1984,19.085,0.975
05/24/1984,19.176,0.926
05/25/1984,19.176,0.893
05/26/1984,19.200,0.837
05/27/1984,19.220,0.775
05/28/1984,19.240,0.723
05/29/1984,19.279,0.607
05/30/1984,19.327,0.458
05/31/1984,19.366,0.374
06/01/1984,19.373,0.354
06/02/1984,19.377,0.332
06/03/1984,19.402,0.296
06/04/1984,19.411,0.272
06/05/1984,19.919,0.254
06/06/1984,20.469,0.232
06/07/1984,20.802,0.216
06/08/1984,20.994,0.207
06/09/1984,20.994,0.200
06/10/1984,21.390,0.191
06/11/1984,21.670,0.173
06/12/1984,21.682,0.158
06/13/1984,21.797,0.140
06/14/1984,21.804,0.118
06/15/1984,21.808,0.094
06/16/1984,21.830,0.075
06/17/1984,21.836,0.060
06/18/1984,21.836,0.046
06/19/1984,21.940,0.032
06/20/1984,22.319,0.021
06/21/1984,22.374,0.015
06/22/1984,22.374,0.014
06/23/1984,22.374,0.012
06/24/1984,22.375,0.007
06/25/1984,22.375,0.002
06/26/1984,22.375,0.001
06/27/1984,22.375,0.000
06/28/1984,22.375,0.000
06/29/1984,22.375,0.000
06/30/1984,22.375,0.000
07/01/1984,22.375,0.000
07/02/1984,22.382,0.000
07/03/1984,22.389,0.000
07/04/1984,22.449,0.000
07/05/1984,22.449,0.000
07/06/1984,22.466,0.000
07/07/1984,22.481,0.000